User: anonymous   Login
Location: Unspecified
(0.0000°N, 0.0000°E)
Time: 01:24:08
(UTC+02:00)
Language:

Meteor PRIRODA - Orbit

View from above orbital plane
View from above orbital plane
View from above satellite
View from above satellite

Ground track
Ground track

The orbit data is extracted from the following two-line orbital elements,

1 12585U 81065A   17115.90870130 +.00001568 +00000-0 +75299-4 0  9990
2 12585 097.4270 095.9814 0013714 217.8772 142.1499 15.20252993948513
Epoch (UTC): 25 April 2017 21:48:31
Eccentricity: 0.0013714
inclination: 97.4270°
perigee height: 495 km
apogee height: 514 km
right ascension of ascending node: 95.9814°
argument of perigee: 217.8772°
revolutions per day: 15.20252993
mean anomaly at epoch: 142.1499°
orbit number at epoch: 94851

The dashed part of the orbit path shows where the satellite is in the earth's shadow,  

DLR